Flag for Bosnia-Herzegovina Weather past 2 weeks in Tuzla, Bosnia-Herzegovina

Now
63 °F

Partly sunny.


Feels Like: 63 °F
Forecast: 58 / 72 °F
Wind: 2 mph from North

Location: Tuzla

Current Time: Aug 23, 2014 at 8:15:29 PM

Latest Report: Aug 23, 2014 at 8:00 PM


Visibility: N/A

Pressure: 29.92 "Hg

Humidity: 100%

Dew point: 63 °F

Location of TuzlaLocation

Historic Weather in Tuzla — Graph

°F

Tuzla temperature yesterday

Maximum temperature yesterday: 86 °F (at 3:00 PM)
Minimum temperature yesterday: 59 °F (at 6:00 AM)
Average temperature yesterday: 71 °F

Past Weeks' High & Low Weather Summary

 TemperatureHumidityPressure
High95 °F (Aug 13, 3:30 PM)100% (Aug 8, 8:30 PM)30.09 "Hg (Aug 8, 8:30 PM)
Low46 °F (Aug 18, 6:00 AM)32% (Aug 11, 3:00 PM)29.77 "Hg (Aug 13, 4:00 PM)
Average73 °F79%29.96 "Hg
* Reported Aug 8 7:00 PM — Aug 23 7:00 PM, Tuzla, Weather by CustomWeather, © 2014

Note: Actual official high and low records may vary slightly from our data, if they occured in-between our weather recording intervals... More about our weather records

Advertising

Tuzla weather history for previous 24 hours

 ConditionsComfort  
Time TempWeatherWind HumidityBarometerVisibility
7:00 PM
Aug 23
66 °FThunderstorms. Partly sunny.15 mph94%29.95 "HgN/A
6:30 PM68 °FThunderstorms. Partly sunny.17 mph88%29.92 "HgN/A
6:00 PM75 °FThundershowers. Scattered clouds.6 mph89%29.89 "HgN/A
5:30 PM75 °FThunderstorms. Scattered clouds.7 mph83%29.86 "HgN/A
5:00 PM81 °FThunderstorms. Scattered clouds.10 mph62%29.86 "HgN/A
4:30 PM81 °FScattered clouds.9 mph58%29.89 "HgN/A
4:00 PM82 °FScattered clouds.10 mph55%29.89 "HgN/A
3:30 PM82 °FScattered clouds.8 mph55%29.92 "HgN/A
3:00 PM82 °FPassing clouds.7 mph55%29.92 "HgN/A
2:30 PM81 °FPassing clouds.5 mph58%29.95 "HgN/A
2:00 PM82 °FPassing clouds.5 mph55%29.95 "HgN/A
1:30 PM82 °FPassing clouds.5 mph55%29.95 "HgN/A
1:00 PM81 °FPassing clouds.5 mph58%29.98 "HgN/A
12:30 PM77 °FPassing clouds.3 mph69%29.98 "HgN/A
12:00 PM75 °FPassing clouds.3 mph83%29.98 "HgN/A
11:30 AM73 °FPassing clouds.5 mph83%30.01 "HgN/A
11:00 AM72 °FPassing clouds.2 mph88%30.01 "HgN/A
10:30 AM68 °FScattered clouds.3 mph100%30.01 "Hg5 mi
10:00 AM68 °FFog.2 mph100%30.01 "Hg3 mi
9:30 AM70 °FFog.1 mph100%30.01 "Hg3 mi
9:00 AM66 °FFog.1 mph100%30.01 "Hg3 mi
8:30 AM66 °FFog.1 mph100%30.01 "Hg3 mi
8:00 AM64 °FFog.2 mph100%30.01 "Hg2 mi
7:30 AM64 °FFog.2 mph100%30.01 "Hg1 mi
7:00 AM63 °FFog.2 mph100%30.01 "Hg1 mi
6:30 AM63 °FFog.2 mph100%30.01 "Hg1 mi
6:00 AM63 °FFog.2 mph100%30.01 "Hg1 mi
9:00 PM
Aug 22
64 °FFog.1 mph100%30.04 "Hg3 mi
8:00 PM68 °FScattered clouds.2 mph100%30.01 "HgN/A
Weather by CustomWeather, © 2014

See weather overviewHow to use our weather pages